This is the latest recevied weather packets stored in our database for station/object KY0TEQ-13. If no packets are shown the sender has not sent any weather packets the latest 10 day(s).
| Time | Temp. | Humidity | Pressure | Rain* | Wind** | Luminosity | Snow |
|---|---|---|---|---|---|---|---|
| 1777504935 | 16.11° C | 13% | 1300 hPa | 0 mm | - | 331 W/m² | - |
| 1777504632 | 16.11° C | 12% | 1300.1 hPa | 0 mm | - | 347 W/m² | - |
| 1777504330 | 16.11° C | 12% | 1300.1 hPa | 0 mm | - | 363 W/m² | - |
| 1777504024 | 16.11° C | 13% | 1300.4 hPa | 0 mm | - | 378 W/m² | - |
| 1777503721 | 16.67° C | 13% | 1300.1 hPa | 0 mm | - | 393 W/m² | - |
| 1777503418 | 16.67° C | 13% | 1300.1 hPa | 0 mm | - | 408 W/m² | - |
| 1777503113 | 16.67° C | 12% | 1300.1 hPa | 0 mm | - | 424 W/m² | - |
| 1777502811 | 16.67° C | 13% | 1300.4 hPa | 0 mm | - | 437 W/m² | - |
| 1777502508 | 16.11° C | 14% | 1300.1 hPa | 0 mm | - | 452 W/m² | - |
| 1777502205 | 16.67° C | 13% | 1300.5 hPa | 0 mm | - | 466 W/m² | - |
| 1777501902 | 16.67° C | 13% | 1300.2 hPa | 0 mm | - | 480 W/m² | - |
| 1777501599 | 16.11° C | 13% | 1300.2 hPa | 0 mm | - | 493 W/m² | - |
| 1777501296 | 16.67° C | 12% | 1300.4 hPa | 0 mm | - | 508 W/m² | - |
| 1777500994 | 16.67° C | 14% | 1300.5 hPa | 0 mm | - | 521 W/m² | - |
| 1777500692 | 16.67° C | 13% | 1300.4 hPa | 0 mm | - | 534 W/m² | - |
| 1777500388 | 17.22° C | 13% | 1300.5 hPa | 0 mm | - | 547 W/m² | - |
| 1777500084 | 16.67° C | 14% | 1300.4 hPa | 0 mm | - | 560 W/m² | - |
| 1777499781 | 16.11° C | 13% | 1300.4 hPa | 0 mm | - | 572 W/m² | - |
| 1777499477 | 16.11° C | 14% | 1300.7 hPa | 0 mm | - | 584 W/m² | - |
| 1777499176 | 16.11° C | 13% | 1300.6 hPa | 0 mm | - | 594 W/m² | - |
| 1777498872 | 16.67° C | 13% | 1300.7 hPa | 0 mm | - | 605 W/m² | - |
| 1777498569 | 16.67° C | 15% | 1300.7 hPa | 0 mm | - | 619 W/m² | - |
| 1777498265 | 16.67° C | 12% | 1300.7 hPa | 0 mm | - | 629 W/m² | - |
| 1777497964 | 16.67° C | 13% | 1300.5 hPa | 0 mm | - | 638 W/m² | - |
| 1777497659 | 16.67° C | 14% | 1300.7 hPa | 0 mm | - | 654 W/m² | - |
* Rain latest hour (hover to see other rain measurements)
** Current wind speed in m/s (hover to see current wind gust speed)